Peachtree City, GA

5:33 PM EST on December 10, 2019 (GMT -0500)
Peachtree City-Falcon

Weather History for KFFC - June, 2019

Change the Weather History Date:

Tuesday, June 11, 2019

  Actual Average Record
Temperature  
Mean Temperature 79 °F 75 °F  
Max Temperature 89 °F 87 °F 96 °F (2016)
Min Temperature 68 °F 64 °F 55 °F (2002)
Degree Days  
Heating Degree Days 0 0  
Month to date heating degree days 0 0  
Since 1 June heating degree days 0 0  
Since 1 July heating degree days 2325 2950  
Cooling Degree Days 14 10  
Month to date cooling degree days 132 101  
Year to date cooling degree days 539 291  
Since 1 June cooling degree days 132 101  
Growing Degree Days 28 (Base 50)    
Moisture  
Dew Point 66 °F    
Average Humidity 64    
Maximum Humidity 82    
Minimum Humidity 46    
Precipitation  
Precipitation 1.11 in 0.13 in 1.11 in (2019)
Month to date precipitation 6.94 1.35  
Year to date precipitation 27.70 22.87  
Snow  
Snow 0.00 in - - ()
Month to date snowfall 0.0  
Since 1 June snowfall 0.0  
Since 1 July snowfall T  
Snow Depth 0.00 in    
Sea Level Pressure  
Sea Level Pressure 30.00 in    
Wind  
Wind Speed 5 mph (North)    
Max Wind Speed 15 mph    
Max Gust Speed 24 mph    
Visibility 8 miles    
Events Fog , Rain    
T = Trace of Precipitation, MM = Missing Value Source: NWS Daily Summary

Daily Weather History Graph

Daily Weather History Graph

Search for Another Location

Airport or City:

Astronomy

Jun. 11, 2019 Rise Set
Actual Time 6:28 AM EDT 8:47 PM EDT
Civil Twilight 5:59 AM EDT 9:16 PM EDT
Nautical Twilight 5:24 AM EDT 9:51 PM EDT
Astronomical Twilight 4:45 AM EDT 10:30 PM EDT
Moon 3:05 PM EDT (6/11) 2:49 AM EDT (6/11)
Length of Visible Light 15h 17m
Length of Day
14h 19m
Waxing Gibbous, 66% of the Moon is Illuminated
Jun 11
Waxing Gibbous
Jun 17
Full
Jun 25
Last Quarter
Jul 2
New
Jul 9
First Quarter

Hourly Weather History & Observations

Time (EDT) Temp. Heat Index Dew Point Humidity Pressure Visibility Wind Dir Wind Speed Gust Speed Precip Events Conditions
12:53 AM 75.0 °F - 66.9 °F 76% 30.00 in 10.0 mi NNW 9.2 mph - N/A   Clear
1:53 AM 73.9 °F - 66.0 °F 76% 29.99 in 10.0 mi NNW 10.4 mph - N/A   Clear
2:53 AM 73.0 °F - 64.9 °F 76% 29.99 in 10.0 mi NNW 10.4 mph 20.7 mph N/A   Clear
3:53 AM 71.1 °F - 64.0 °F 78% 29.99 in 10.0 mi NNW 8.1 mph - N/A   Clear
4:53 AM 70.0 °F - 63.0 °F 78% 30.00 in 10.0 mi NW 6.9 mph - N/A   Clear
5:53 AM 69.1 °F - 62.1 °F 78% 30.01 in 10.0 mi NW 8.1 mph - N/A   Clear
6:53 AM 68.0 °F - 61.0 °F 78% 30.02 in 10.0 mi NNW 6.9 mph - N/A   Clear
7:53 AM 70.0 °F - 60.1 °F 71% 30.04 in 10.0 mi NNW 8.1 mph - N/A   Clear
8:53 AM 72.0 °F - 60.1 °F 66% 30.06 in 10.0 mi North 8.1 mph - N/A   Clear
9:53 AM 75.0 °F - 62.1 °F 64% 30.06 in 10.0 mi North 5.8 mph - N/A   Clear
10:53 AM 79.0 °F - 63.0 °F 58% 30.05 in 10.0 mi North 5.8 mph - N/A   Clear
11:53 AM 82.9 °F 84.6 °F 64.9 °F 54% 30.04 in 10.0 mi Variable 3.5 mph - N/A   Scattered Clouds
12:53 PM 84.0 °F 86.3 °F 66.0 °F 55% 30.02 in 10.0 mi Variable 5.8 mph - N/A   Partly Cloudy
2:53 PM 86.0 °F 88.2 °F 66.0 °F 51% 29.98 in 10.0 mi Calm Calm - N/A   Mostly Cloudy
3:53 PM 87.1 °F 88.9 °F 64.9 °F 48% 29.96 in 10.0 mi Calm Calm - N/A   Partly Cloudy
4:53 PM 88.0 °F 90.3 °F 66.0 °F 48% 29.94 in 10.0 mi SE 5.8 mph - N/A   Clear
5:53 PM 86.0 °F 88.8 °F 66.9 °F 53% 29.94 in 10.0 mi North 5.8 mph - N/A   Mostly Cloudy
6:53 PM 86.0 °F 90.1 °F 69.1 °F 57% 29.94 in 10.0 mi NNE 3.5 mph - N/A   Mostly Cloudy
7:53 PM 82.9 °F 85.8 °F 68.0 °F 60% 29.95 in 10.0 mi North 5.8 mph - N/A   Mostly Cloudy
8:53 PM 79.0 °F - 68.0 °F 69% 29.97 in 10.0 mi NNE 8.1 mph - N/A   Mostly Cloudy
9:53 PM 75.9 °F - 70.0 °F 82% 29.98 in 10.0 mi SE 8.1 mph - N/A   Overcast
10:08 PM 75.0 °F - 70.0 °F 84% 30.01 in 1.8 mi East 8.1 mph 24.2 mph 0.11 in Rain Rain
10:43 PM 73.9 °F - 70.0 °F 87% 30.01 in 0.5 mi East 6.9 mph 21.9 mph 1.01 in Fog , Rain Heavy Rain
10:51 PM 73.4 °F - 71.6 °F 94% 30.01 in 2.0 mi NE 3.5 mph - 1.06 in Rain Heavy Rain
10:53 PM 73.9 °F - 71.1 °F 91% 29.99 in 2.5 mi Calm Calm - 1.07 in Rain Rain
10:56 PM 73.9 °F - 71.1 °F 91% 30.01 in 3.0 mi Calm Calm - 0.00 in Rain Rain
11:53 PM 73.0 °F - 71.1 °F 93% 29.99 in 8.0 mi Calm Calm - 0.04 in   Overcast